Regional Weather Roundup
Issued by NWS Little Rock, AR

Home | Current Version | Previous Version | Graphics & Text | Print | Product List | Glossary On
Versions: 1 2 3 4 5 6 7 8 9 10 11 12 13 14 15 16 17 18 19 20 21 22 23 24 25 26 27 28 29 30 31 32 33 34 35 36 37 38 39 40 41 42 43 44 45 46 47 48 49 50
535
ASUS44 KLZK 291105
RWRLZK

WEATHER ROUNDUP FOR ARKANSAS
NATIONAL WEATHER SERVICE LITTLE ROCK AR
600 AM CDT THU JUN 29 2017

NOTE: "FAIR" INDICATES FEW OR NO CLOUDS BELOW 12,000 FEET WITH NO
SIGNIFICANT WEATHER AND/OR OBSTRUCTIONS TO VISIBILITY.

ARZ001-003-010-029-291200-
NORTHWEST ARKANSAS

CITY           SKY/WX    TMP DP  RH WIND       PRES   REMARKS
FAYETTEVILLE   PTCLDY    72  67  84 S8        29.91R
FORT SMITH     PTCLDY    72  68  87 SE6       29.89R
HARRISON       CLEAR     67  66  97 SE6       29.95R
BENTONVILLE    MOCLDY    73  64  73 S7        29.92R
ROGERS         CLOUDY    72  66  81 S10       29.92R
SILOAM SPGS    CLOUDY    72  64  78 S9        29.90R
HIGHFILL       CLOUDY    73  67  81 S9        29.91R
SPRINGDALE     CLEAR     73  66  78 S6        29.93
$$

ARZ004-005-016-291200-
NORTH CENTRAL ARKANSAS

CITY           SKY/WX    TMP DP  RH WIND       PRES   REMARKS
BATESVILLE     CLOUDY    72  68  88 CALM      29.97R VSB 3/4
FLIPPIN        CLEAR     66  61  82 E3        29.92S
MTN HOME       CLEAR     68  65  90 SE5       29.95R
$$

ARZ040-041-291200-
WEST CENTRAL ARKANSAS

CITY           SKY/WX    TMP DP  RH WIND       PRES   REMARKS
MENA           MOCLDY    77  75  94 S5        29.94S
MOUNT IDA      CLEAR     73  68  84 S3        29.92R
$$

ARZ009-017-025-026-028-291200-
NORTHEAST ARKANSAS

CITY           SKY/WX    TMP DP  RH WIND       PRES   REMARKS
CORNING        FAIR      72  72 100 S3        29.99R
JONESBORO      CLEAR     72  70  93 S8        29.98R
WALNUT RIDGE   CLEAR     72  66  83 S7        29.98R
$$

ARZ022-023-033-042-044-291200-
CENTRAL ARKANSAS

CITY           SKY/WX    TMP DP  RH WIND       PRES   REMARKS
LITTLE ROCK    MOCLDY    71  71 100 S8        29.96R
JACKSONVILLE   MOCLDY    73  73 100 S5        29.95R
CONWAY           N/A     75  72  88 S9        29.93R
SEARCY         MOCLDY    71  71 100 S3        29.98R
HOT SPRINGS    MOCLDY    73  71  93 S7        29.95R
RUSSELLVILLE   CLEAR     68  67  96 CALM      29.92R
CLINTON        MOCLDY    66  64  94 CALM      29.96R FOG
$$

ARZ036-291200-
EAST ARKANSAS

CITY           SKY/WX    TMP DP  RH WIND       PRES   REMARKS
WEST MEMPHIS   CLEAR     72  71  97 S9        29.99R
$$

ARZ050-053-066-070-073-291200-
SOUTHWEST ARKANSAS

CITY           SKY/WX    TMP DP  RH WIND       PRES   REMARKS
ARKADELPHIA    CLOUDY    71  71 100 S7        29.95R
CAMDEN         CLOUDY    73  68  83 S5        29.95S
TEXARKANA      CLEAR     71  71 100 CALM      29.93R
EL DORADO      CLOUDY    73  70  90 SE5       29.95R
DE QUEEN       CLOUDY    71  71 100 NE3       29.90S
$$

ARZ056-057-069-291200-
SOUTHEAST ARKANSAS

CITY           SKY/WX    TMP DP  RH WIND       PRES   REMARKS
PINE BLUFF     PTCLDY    71  70  96 SE7       29.97R
STUTTGART      CLEAR     73  61  64 S8        29.98S
MONTICELLO     MOCLDY    72  70  93 SE3       29.97R

$$






USA.gov is the U.S. government's official web portal to all federal, state and local government web resources and services.